Home > Weather > Pensacola > Past weeks

Flag for USA Weather for the Past 2 Weeks in Pensacola, Florida, USA

Now
74 °F

Clear.


Feels Like: 72 °F
Forecast: 72 / 82 °F
Wind: 5 mph from South

Location: Pensacola Regional Airport

Current Time: May 2, 2016 at 6:08:39 AM

Latest Report: May 2, 2016 at 4:53 AM


Visibility: 10 mi

Pressure: 29.96 "Hg

Humidity: 91%

Dew Point: 71 °F

Location of PensacolaLocation

Historic Weather in Pensacola — Graph

°F

Pensacola Temperature Yesterday

Maximum temperature yesterday: 81 °F (at 1:53 PM)
Minimum temperature yesterday: 74 °F (at 5:53 AM)
Average temperature yesterday: 77 °F

High & Low Weather Summary for the Past Weeks

 TemperatureHumidityPressure
High85 °F (Apr 29, 2:53 PM)96% (Apr 19, 5:53 AM)30.30 "Hg (Apr 19, 5:53 AM)
Low57 °F (Apr 19, 5:53 AM)28% (Apr 23, 3:53 PM)29.79 "Hg (Apr 27, 9:00 PM)
Average73 °F75%30.01 "Hg
* Reported Apr 17 4:53 AM — May 2 4:53 AM, Pensacola, Weather by CustomWeather, © 2016

Note: Actual official high and low records may vary slightly from our data, if they occured in-between our weather recording intervals... More about our weather records

Advertising

Pensacola Weather History for the Previous 24 Hours

Scroll right to see more
 ConditionsComfort  
Time TempWeatherWind HumidityBarometerVisibility
4:53 AM
Mon, May 2
74 °FClear.5 mph91%29.96 "Hg10 mi
3:53 AM75 °FPassing clouds.3 mph90%29.96 "Hg9 mi
3:02 AM76 °FLight rain. Overcast.5 mph88%29.97 "Hg10 mi
2:53 AM76 °FLight rain. Overcast.No wind85%29.97 "Hg10 mi
1:53 AM76 °FMostly cloudy.6 mph88%29.96 "Hg10 mi
12:53 AM76 °FPassing clouds.10 mph88%29.97 "Hg10 mi
11:53 PM
Sun, May 1
76 °FPassing clouds.6 mph88%29.99 "Hg10 mi
10:53 PM76 °FPassing clouds.8 mph88%29.98 "Hg10 mi
9:53 PM76 °FPassing clouds.8 mph88%29.99 "Hg10 mi
8:53 PM76 °FClear.13 mph88%29.95 "Hg10 mi
7:53 PM76 °FClear.14 mph88%29.96 "Hg10 mi
6:53 PM77 °FSunny.9 mph85%29.99 "Hg10 mi
5:53 PM78 °FSunny.7 mph82%29.99 "Hg10 mi
4:53 PM79 °FScattered clouds.8 mph82%30.00 "Hg10 mi
3:53 PM79 °FScattered clouds.9 mph79%30.01 "Hg10 mi
2:53 PM80 °FBroken clouds.9 mph79%30.01 "Hg10 mi
1:53 PM81 °FMostly cloudy.10 mph79%30.01 "Hg10 mi
1:03 PM80 °FMostly cloudy.9 mph76%30.00 "Hg10 mi
11:53 AM80 °FMostly cloudy.10 mph79%30.01 "Hg10 mi
10:53 AM79 °FPartly sunny.14 mph82%30.00 "Hg10 mi
9:55 AM79 °FPartly sunny.12 mph82%30.00 "Hg10 mi
8:53 AM78 °FScattered clouds.12 mph82%29.99 "Hg10 mi
7:53 AM76 °FScattered clouds.9 mph91%29.98 "Hg9 mi
6:53 AM75 °FSunny.8 mph90%29.95 "Hg8 mi
Weather by CustomWeather, © 2016

See weather overviewHow to use our weather pages